Regional Weather Roundup
Issued by NWS

Home | Current Version | Previous Version | Graphics & Text | Print | Product List | Glossary On
Versions: 1 2 3 4 5 6 7 8 9 10 11 12 13 14 15 16 17 18 19 20 21 22 23 24 25 26 27 28 29 30 31 32 33 34 35 36 37 38 39 40 41 42 43 44 45 46 47 48 49 50
000
ASUS45 KCYS 262010
RWRWY

WYOMING REGIONAL WEATHER ROUNDUP
NATIONAL WEATHER SERVICE CHEYENNE WY
200 PM MDT TUE JUL 26 2016

NOTE:  "FAIR" INDICATES FEW OR NO CLOUDS BELOW 12,000 FEET
WITH NO SIGNIFICANT WEATHER AND/OR OBSTRUCTIONS TO VISIBILITY.

WYZ001-262100-
YELLOWSTONE NATIONAL PARK

CITY           SKY/WX    TMP DP  RH WIND       PRES   REMARKS
LK YELLOWSTONE   N/A     73  35  25 VRB3      30.35F
W YELLOWSTONE  NOT AVBL

$$
WYZ002>013-054>058-071-098>099-262100-
NORTHERN WYOMING

CITY           SKY/WX    TMP DP  RH WIND       PRES   REMARKS
JACKSON        SUNNY     82  27  13 W6        30.22F
CODY           FAIR      82  46  28 NE9G17    30.15F
GREYBULL       FAIR      90  40  17 NE6       30.03F
WORLAND        FAIR      88  39  17 VRB3      30.06F
SHERIDAN       FAIR      90  44  20 VRB6      30.07F
BUFFALO        FAIR      87  42  20 E9        30.15F
GILLETTE       FAIR      89  44  20 N14G21    30.09F
HULETT         FAIR      86  46  25 E6        30.10S
NEWCASTLE      FAIR      88  46  23 SW10G16   30.08F

$$
WYZ014>020-022>026-101>103-262100-
CENTRAL WYOMING

CITY           SKY/WX    TMP DP  RH WIND       PRES   REMARKS
BIG PINEY      FAIR      84  26  12 VRB3      30.26F
PINEDALE       FAIR      81  25  12 NW26G36   30.27F
DUBOIS         FAIR      81  19  10 N10G20    30.26S
LANDER         FAIR      86  39  19 S6        30.13F
RIVERTON       FAIR      88  34  14 E8        30.14F
CASPER         FAIR      87  43  21 NE7       30.14F
DOUGLAS          N/A    N/A N/A N/A MISG      30.11F

$$
WYZ021-027>030-104>119-262100-
SOUTHERN WYOMING

CITY           SKY/WX    TMP DP  RH WIND       PRES   REMARKS
EVANSTON       FAIR      88  30  12 SW8G28    30.26F
KEMMERER         N/A    N/A N/A N/A SW9       30.28F
FORT BRIDGER   FAIR      90  27  10 W10G20    30.28F
ROCK SPRINGS   FAIR      89  26  10 NW12G17   30.23F
DIXON          FAIR      88  29  12 W6        30.25F
RAWLINS        FAIR      89  23   9 SW14G21   30.23F
SARATOGA       FAIR      86  25  10 NW9G25    30.26F
LARAMIE        FAIR      89  16   7 NW22G29   30.26F
CHEYENNE       FAIR      83  48  29 VRB5      30.20R
TORRINGTON     FAIR      93  54  26 VRB6      30.02F HX  91
PINE BLUFFS    FAIR      90  37  15 E8        30.12F

$$



USA.gov is the U.S. government's official web portal to all federal, state and local government web resources and services.